When you browse on this site, cookies collect data to enhance your experience and personalize the content and advertising you see.
Visit our Privacy Policy to learn more. By continuing to use the site, you agree to this use of cookies and data.
  • In Hungary
  • List of Countries
  • For 7 days
  • Water Temperature
  • Satellite Maps
  • Weather Map
  • News
  • Weather Widgets
  • user-avatar
    Login

    Hourly Weather Shemelinka

    Today, 18 January, Friday

    Time Temperature Precipitation Wind Pressure Humidity
    00:00 -2°C° 0.1 mm 6 mps 721 mmHg 87%
    01:00 -3°C° 0.1 mm 6 mps 722 mmHg 86%
    02:00 -2°C° 0 mm 4 mps 722 mmHg 87%
    03:00 -3°C° 0 mm 4 mps 722 mmHg 86%
    04:00 -5°C° 0 mm 5 mps 723 mmHg 86%
    05:00 -5°C° 0 mm 5 mps 724 mmHg 85%
    06:00 -7°C° 0 mm 5 mps 724 mmHg 87%
    07:00 -8°C° 0 mm 4 mps 725 mmHg 89%
    08:00 -9°C° 0 mm 4 mps 725 mmHg 91%
    09:00 -9°C° 0 mm 4 mps 726 mmHg 90%
    10:00 -8°C° 0 mm 3 mps 727 mmHg 90%
    11:00 -8°C° 0 mm 3 mps 727 mmHg 90%
    12:00 -8°C° 0 mm 3 mps 728 mmHg 91%
    13:00 -7°C° 0 mm 2 mps 728 mmHg 91%
    14:00 -7°C° 0 mm 2 mps 728 mmHg 92%
    15:00 -6°C° 0.1 mm 1 mps 728 mmHg 93%
    16:00 -7°C° 0.1 mm 1 mps 727 mmHg 94%
    17:00 -7°C° 0.1 mm 1 mps 727 mmHg 96%
    18:00 -8°C° 0.1 mm 1 mps 728 mmHg 95%
    19:00 -8°C° 0.1 mm 1 mps 728 mmHg 94%
    20:00 -9°C° 0.1 mm 2 mps 728 mmHg 93%
    21:00 -10°C° 0 mm 2 mps 728 mmHg 93%
    22:00 -10°C° 0 mm 2 mps 729 mmHg 94%
    23:00 -13°C° 0 mm 3 mps 729 mmHg 94%

    Tomorrow, 19 January, Saturday

    Time Temperature Precipitation Wind Pressure Humidity
    00:00 -13°C° 0 mm 3 mps 730 mmHg 94%
    01:00 -14°C° 0 mm 3 mps 730 mmHg 94%
    02:00 -14°C° 0 mm 3 mps 731 mmHg 94%
    03:00 -13°C° 0 mm 3 mps 731 mmHg 94%
    04:00 -12°C° 0 mm 3 mps 731 mmHg 93%
    05:00 -11°C° 0 mm 4 mps 731 mmHg 93%
    06:00 -11°C° 0.2 mm 4 mps 731 mmHg 93%
    07:00 -10°C° 0.2 mm 4 mps 732 mmHg 92%
    08:00 -9°C° 0.2 mm 4 mps 732 mmHg 92%
    09:00 -9°C° 0.1 mm 4 mps 732 mmHg 90%
    10:00 -9°C° 0.1 mm 4 mps 733 mmHg 88%
    11:00 -10°C° 0.1 mm 4 mps 733 mmHg 85%
    12:00 -10°C° 0 mm 4 mps 733 mmHg 86%
    13:00 -10°C° 0 mm 4 mps 734 mmHg 87%
    14:00 -10°C° 0 mm 3 mps 734 mmHg 87%
    15:00 -12°C° 0 mm 3 mps 734 mmHg 89%
    16:00 -12°C° 0 mm 3 mps 735 mmHg 91%
    17:00 -13°C° 0 mm 3 mps 735 mmHg 92%
    18:00 -12°C° 0 mm 2 mps 735 mmHg 94%
    19:00 -13°C° 0 mm 2 mps 735 mmHg 95%
    20:00 -13°C° 0 mm 2 mps 735 mmHg 96%
    21:00 -12°C° 0 mm 3 mps 736 mmHg 95%
    22:00 -9°C° 0 mm 3 mps 736 mmHg 93%
    23:00 -8°C° 0 mm 4 mps 736 mmHg 92%

    Day after tomorrow, 20 January, Sunday

    Time Temperature Precipitation Wind Pressure Humidity
    00:00 -8°C° 0 mm 4 mps 736 mmHg 91%
    01:00 -8°C° 0 mm 4 mps 736 mmHg 90%
    02:00 -8°C° 0 mm 5 mps 736 mmHg 88%
    03:00 -10°C° 0 mm 5 mps 735 mmHg 89%
    04:00 -10°C° 0 mm 5 mps 735 mmHg 89%
    05:00 -11°C° 0 mm 5 mps 734 mmHg 90%
    06:00 -10°C° 0.1 mm 5 mps 734 mmHg 90%
    07:00 -8°C° 0.1 mm 5 mps 734 mmHg 90%
    08:00 -7°C° 0.1 mm 5 mps 733 mmHg 90%
    09:00 -7°C° 0.5 mm 4 mps 733 mmHg 91%
    10:00 -5°C° 0.5 mm 4 mps 733 mmHg 92%
    11:00 -5°C° 0.5 mm 4 mps 732 mmHg 92%
    12:00 -5°C° 0.8 mm 4 mps 732 mmHg 93%
    13:00 -6°C° 0.8 mm 3 mps 732 mmHg 93%
    14:00 -6°C° 0.8 mm 3 mps 732 mmHg 93%
    15:00 -7°C° 0.2 mm 3 mps 732 mmHg 93%
    16:00 -8°C° 0.2 mm 3 mps 732 mmHg 94%
    17:00 -7°C° 0.2 mm 2 mps 732 mmHg 94%
    18:00 -8°C° 0.1 mm 2 mps 733 mmHg 94%
    19:00 -9°C° 0.1 mm 2 mps 733 mmHg 95%
    20:00 -9°C° 0.1 mm 2 mps 733 mmHg 95%
    21:00 -10°C° 0.1 mm 2 mps 733 mmHg 95%
    22:00 -10°C° 0.1 mm 2 mps 734 mmHg 94%
    23:00 -12°C° 0.1 mm 3 mps 734 mmHg 94%

    21 January, Monday

    Time Temperature Precipitation Wind Pressure Humidity
    00:00 -13°C° 0 mm 3 mps 734 mmHg 95%
    01:00 -13°C° 0 mm 2 mps 734 mmHg 95%
    02:00 -14°C° 0 mm 2 mps 735 mmHg 95%
    03:00 -14°C° 0 mm 2 mps 735 mmHg 96%
    04:00 -15°C° 0 mm 2 mps 735 mmHg 96%
    05:00 -15°C° 0 mm 2 mps 735 mmHg 97%
    06:00 -16°C° 0 mm 2 mps 735 mmHg 97%
    07:00 -16°C° 0 mm 2 mps 735 mmHg 97%
    08:00 -16°C° 0 mm 2 mps 735 mmHg 97%
    09:00 -15°C° 0 mm 2 mps 736 mmHg 95%
    10:00 -15°C° 0 mm 3 mps 736 mmHg 93%
    11:00 -15°C° 0 mm 3 mps 736 mmHg 91%
    12:00 -15°C° 0.1 mm 3 mps 736 mmHg 90%
    13:00 -14°C° 0.1 mm 3 mps 736 mmHg 89%
    14:00 -14°C° 0.1 mm 3 mps 737 mmHg 87%
    15:00 -16°C° 0 mm 3 mps 737 mmHg 90%
    16:00 -17°C° 0 mm 3 mps 737 mmHg 93%
    17:00 -17°C° 0 mm 2 mps 737 mmHg 96%
    18:00 -18°C° 0 mm 2 mps 738 mmHg 96%
    19:00 -19°C° 0 mm 2 mps 738 mmHg 97%
    20:00 -19°C° 0 mm 2 mps 738 mmHg 97%
    21:00 -20°C° 0 mm 2 mps 739 mmHg 97%
    22:00 -20°C° 0 mm 2 mps 739 mmHg 98%
    23:00 -21°C° 0 mm 2 mps 739 mmHg 98%

    22 January, Tuesday

    Time Temperature Precipitation Wind Pressure Humidity
    00:00 -20°C° 0 mm 2 mps 739 mmHg 98%
    01:00 -20°C° 0 mm 2 mps 739 mmHg 98%
    02:00 -20°C° 0 mm 2 mps 740 mmHg 98%
    03:00 -20°C° 0 mm 2 mps 740 mmHg 98%
    04:00 -20°C° 0 mm 2 mps 740 mmHg 98%
    05:00 -20°C° 0 mm 2 mps 740 mmHg 98%
    06:00 -20°C° 0 mm 2 mps 740 mmHg 98%
    07:00 -20°C° 0 mm 2 mps 740 mmHg 98%
    08:00 -21°C° 0 mm 2 mps 740 mmHg 99%
    09:00 -19°C° 0 mm 2 mps 740 mmHg 98%
    10:00 -18°C° 0 mm 2 mps 740 mmHg 97%
    11:00 -17°C° 0 mm 2 mps 740 mmHg 96%
    12:00 -15°C° 0 mm 1 mps 740 mmHg 96%
    13:00 -14°C° 0 mm 1 mps 740 mmHg 96%
    14:00 -14°C° 0 mm 1 mps 740 mmHg 96%
    15:00 -16°C° 0 mm 1 mps 740 mmHg 96%
    16:00 -17°C° 0 mm 1 mps 739 mmHg 97%
    17:00 -19°C° 0 mm 1 mps 739 mmHg 98%
    18:00 -19°C° 0 mm 1 mps 740 mmHg 97%
    19:00 -19°C° 0 mm 1 mps 740 mmHg 96%
    20:00 -19°C° 0 mm 1 mps 740 mmHg 95%
    21:00 -19°C° 0 mm 1 mps 740 mmHg 94%
    22:00 -19°C° 0 mm 1 mps 740 mmHg 93%
    23:00 -19°C° 0 mm 1 mps 740 mmHg 92%

    23 January, Wednesday

    Time Temperature Precipitation Wind Pressure Humidity
    00:00 -18°C° 0 mm 1 mps 740 mmHg 93%
    01:00 -20°C° 0 mm 2 mps 740 mmHg 94%
    02:00 -20°C° 0 mm 2 mps 740 mmHg 95%
    03:00 -19°C° 0 mm 2 mps 740 mmHg 96%
    04:00 -19°C° 0 mm 2 mps 740 mmHg 97%
    05:00 -18°C° 0 mm 2 mps 740 mmHg 98%
    06:00 -17°C° 0 mm 2 mps 740 mmHg 98%
    07:00 -15°C° 0 mm 2 mps 740 mmHg 97%
    08:00 -14°C° 0 mm 2 mps 740 mmHg 97%
    09:00 -13°C° 0 mm 2 mps 740 mmHg 96%
    10:00 -12°C° 0 mm 2 mps 741 mmHg 96%
    11:00 -12°C° 0 mm 3 mps 741 mmHg 95%
    12:00 -10°C° 0 mm 3 mps 741 mmHg 94%
    13:00 -9°C° 0 mm 3 mps 741 mmHg 94%
    14:00 -9°C° 0 mm 3 mps 741 mmHg 93%
    15:00 -10°C° 0 mm 3 mps 741 mmHg 93%
    16:00 -13°C° 0 mm 3 mps 741 mmHg 94%
    17:00 -13°C° 0 mm 2 mps 741 mmHg 94%
    18:00 -14°C° 0 mm 3 mps 741 mmHg 94%
    19:00 -14°C° 0 mm 3 mps 741 mmHg 94%
    20:00 -15°C° 0 mm 3 mps 741 mmHg 94%
    21:00 -13°C° 0 mm 3 mps 741 mmHg 94%
    22:00 -12°C° 0 mm 3 mps 742 mmHg 93%
    23:00 -10°C° 0 mm 3 mps 742 mmHg 93%
    Show more